User: anonymous   Login
Location: Unspecified
(51.0950°N, 12.9690°E)
Time: 05:28:41
(UTC+00:00)
Language:

USA 238 DEB - Orbit

View from above orbital plane
View from above orbital plane
View from above satellite
View from above satellite

Ground track
Ground track

The orbit data is extracted from the following two-line orbital elements,

1 38773U 12048P   22013.74044471 0.00000000  00000-0  00000-0 0    05
2 38773  63.4303   6.4722 0172167 359.2910   0.7090 13.40830251    06
Epoch (UTC): 13 January 2022 17:46:14
Eccentricity: 0.0172167
inclination: 63.4303°
perigee height: 977 km
apogee height: 1235 km
right ascension of ascending node: 6.4722°
argument of perigee: 359.2910°
revolutions per day: 13.40830251
mean anomaly at epoch: 0.7090°
orbit number at epoch: 0

The dashed part of the orbit path shows where the satellite is in the earth's shadow,  

DLR